This is the latest recevied weather packets stored in our database for station/object KC5DAQ-27. If no packets are shown the sender has not sent any weather packets the latest 1 day(s).
| Time | Temp. | Humidity | Pressure | Rain* | Wind** | Luminosity | Snow |
|---|---|---|---|---|---|---|---|
| 1778113216 | 23.33° C | 83% | 1000.9 hPa | 0 mm | - | 55 W/m² | - |
| 1778113156 | 23.33° C | 83% | 1000.9 hPa | 0 mm | - | 56 W/m² | - |
| 1778113095 | 23.33° C | 83% | 1000.8 hPa | 0 mm | - | 56 W/m² | - |
| 1778113036 | 23.33° C | 83% | 1000.8 hPa | 0 mm | - | 56 W/m² | - |
| 1778112916 | 23.33° C | 83% | 1000.8 hPa | 0 mm | - | 56 W/m² | - |
| 1778112856 | 23.33° C | 83% | 1000.8 hPa | 0 mm | - | 58 W/m² | - |
| 1778112796 | 23.33° C | 83% | 1000.8 hPa | 0 mm | - | 60 W/m² | - |
| 1778112676 | 23.33° C | 83% | 1000.9 hPa | 0 mm | - | 63 W/m² | - |
| 1778112436 | 23.89° C | 83% | 1000.7 hPa | 0 mm | - | 65 W/m² | - |
| 1778112196 | 23.89° C | 83% | 1000.5 hPa | 0 mm | - | 67 W/m² | - |
| 1778111767 | 23.89° C | 83% | 1000.4 hPa | 0 mm | - | 81 W/m² | - |
| 1778111706 | 23.89° C | 83% | 1000.6 hPa | 0 mm | - | 81 W/m² | - |
| 1778111584 | 23.89° C | 83% | 1000.5 hPa | 0 mm | - | 77 W/m² | - |
| 1778111163 | 24.44° C | 83% | 1000.5 hPa | 0 mm | - | 107 W/m² | - |
| 1778110563 | 25° C | 82% | 1000.4 hPa | 0 mm | - | 118 W/m² | - |
| 1778108882 | 28.33° C | 83% | 1000 hPa | 0 mm | - | 67 W/m² | - |
| 1778108642 | 28.33° C | 84% | 999.9 hPa | 0 mm | - | 100 W/m² | - |
| 1778108344 | 28.89° C | 83% | 999.9 hPa | 0 mm | - | 104 W/m² | - |
| 1778107859 | 28.89° C | 83% | 999.7 hPa | 0 mm | - | 157 W/m² | - |
| 1778107366 | 28.89° C | 83% | 999.7 hPa | 0 mm | - | 123 W/m² | - |
| 1778107120 | 28.89° C | 83% | 999.7 hPa | 0 mm | - | 158 W/m² | - |
| 1778106997 | 28.89° C | 83% | 999.7 hPa | 0 mm | - | 162 W/m² | - |
| 1778106874 | 28.89° C | 83% | 999.7 hPa | 0 mm | - | 160 W/m² | - |
| 1778106571 | 28.89° C | 83% | 999.7 hPa | 0 mm | - | 165 W/m² | - |
| 1778106392 | 28.89° C | 83% | 999.6 hPa | 0 mm | - | 188 W/m² | - |
* Rain latest hour (hover to see other rain measurements)
** Current wind speed in m/s (hover to see current wind gust speed)